This is the latest recevied weather packets stored in our database for station/object W4MSI. If no packets are shown the sender has not sent any weather packets the latest 10 day(s).
| Time | Temp. | Humidity | Pressure | Rain* | Wind** | Luminosity | Snow |
|---|---|---|---|---|---|---|---|
| 1777921431 | 25.56° C | 44% | 1010 hPa | 0 mm | - | 862 W/m² | - |
| 1777921128 | 25.56° C | 44% | 1010.1 hPa | 0 mm | - | 863 W/m² | - |
| 1777920825 | 25° C | 45% | 1010.3 hPa | 0 mm | - | 842 W/m² | - |
| 1777920521 | 25° C | 45% | 1010.2 hPa | 0 mm | - | 843 W/m² | - |
| 1777920217 | 25.56° C | 43% | 1010.5 hPa | 0 mm | - | 340 W/m² | - |
| 1777919913 | 25.56° C | 45% | 1010.4 hPa | 0 mm | - | 850 W/m² | - |
| 1777919611 | 25° C | 46% | 1010.4 hPa | 0 mm | - | 860 W/m² | - |
| 1777919308 | 25° C | 47% | 1010.7 hPa | 0 mm | - | 882 W/m² | - |
| 1777919005 | 25° C | 45% | 1010.7 hPa | 0 mm | - | 908 W/m² | - |
| 1777918702 | 25° C | 44% | 1010.8 hPa | 0 mm | - | 880 W/m² | - |
| 1777918400 | 25° C | 45% | 1010.6 hPa | 0 mm | - | 165 W/m² | - |
| 1777918099 | 25° C | 46% | 1010.6 hPa | 0 mm | - | 909 W/m² | - |
| 1777917796 | 24.44° C | 47% | 1010.8 hPa | 0 mm | - | 889 W/m² | - |
| 1777917494 | 24.44° C | 46% | 1010.9 hPa | 0 mm | - | 891 W/m² | - |
| 1777917191 | 25° C | 45% | 1010.8 hPa | 0 mm | - | 863 W/m² | - |
| 1777916889 | 24.44° C | 46% | 1010.8 hPa | 0 mm | - | 863 W/m² | - |
| 1777916586 | 24.44° C | 45% | 1011 hPa | 0 mm | - | 863 W/m² | - |
| 1777916283 | 24.44° C | 46% | 1011.1 hPa | 0 mm | - | 863 W/m² | - |
| 1777915979 | 24.44° C | 48% | 1011 hPa | 0 mm | - | 863 W/m² | - |
| 1777915676 | 24.44° C | 47% | 1011 hPa | 0 mm | - | 861 W/m² | - |
| 1777915373 | 24.44° C | 49% | 1011 hPa | 0 mm | - | 854 W/m² | - |
| 1777915069 | 23.89° C | 46% | 1011.3 hPa | 0 mm | - | 842 W/m² | - |
| 1777914766 | 24.44° C | 47% | 1011.1 hPa | 0 mm | - | 863 W/m² | - |
| 1777914463 | 24.44° C | 50% | 1011.1 hPa | 0 mm | - | 844 W/m² | - |
| 1777914161 | 24.44° C | 51% | 1011.3 hPa | 0 mm | - | 842 W/m² | - |
* Rain latest hour (hover to see other rain measurements)
** Current wind speed in m/s (hover to see current wind gust speed)